Date String (YYYY-MM-DD hh:mm:ss) UTC,Instrument flags,Ambient pressure (hPa),Sample flow (lpm),Bypass flow (lpm),Sample temperature (°C),Ambient temperature (°C),ASC tube jacket temperature (°C),LED temperature (°C),Box temperature (°C),Sample RH (%),Span deviation,Mass concentration (μg/m³),Mass concentration (μg/m³),Mass concentration (μg/m³)
DateTimeUTC,F1_M11,P_M11,Q1_M11,Q2_M11,T1_M11,T2_M11,T3_M11,T4_M11,T5_M11,U1_M11,ZSPAN_M11,X0_M11,X2_M11,X1_M11
2022-07-18 15:00:00,,0828.0,5.00,0.00,29.6,28.3,00.0,38.4,31.5,32.8,0000.0,0020.11,0008.03,0006.77
2022-07-18 15:01:00,,0828.0,4.99,0.00,29.6,28.4,00.0,38.4,31.6,32.4,0000.0,0018.67,0007.99,0006.77
2022-07-18 15:02:00,,0828.0,5.02,0.00,29.7,28.5,00.0,38.4,31.6,32.5,0000.0,0018.17,0007.99,0006.77
2022-07-18 15:03:00,,0828.0,4.99,0.00,29.7,28.6,00.0,38.4,31.7,32.4,0000.0,0018.07,0008.02,0006.78
2022-07-18 15:04:00,,0828.0,5.00,0.00,29.7,28.7,00.0,38.4,31.7,32.0,0000.0,0017.04,0008.05,0006.78
2022-07-18 15:05:00,,0828.0,5.00,0.00,29.8,28.5,00.0,38.4,31.7,32.4,0000.0,0015.80,0008.05,0006.79
2022-07-18 15:06:00,,0828.0,5.00,0.00,29.7,27.8,00.0,38.3,31.7,32.3,0000.0,0015.11,0007.98,0006.79
2022-07-18 15:07:00,,0828.0,4.99,0.00,29.7,27.4,00.0,38.3,31.6,33.4,0000.0,0015.09,0007.92,0006.77
2022-07-18 15:08:00,,0828.0,5.01,0.00,29.7,27.4,00.0,38.3,31.4,33.4,0000.0,0014.59,0007.95,0006.77
2022-07-18 15:09:00,,0828.0,4.99,0.00,29.6,27.5,00.0,38.3,31.4,33.5,0000.0,0016.04,0008.02,0006.77
2022-07-18 15:10:00,,0828.0,5.00,0.00,29.6,27.6,00.0,38.3,31.4,34.0,0000.0,0016.25,0008.05,0006.76
2022-07-18 15:11:00,,0828.0,5.00,0.00,29.6,27.8,00.0,38.3,31.4,33.7,0000.0,0016.01,0008.06,0006.77
2022-07-18 15:12:00,,0828.0,5.01,0.00,29.6,27.9,00.0,38.3,31.4,33.8,0000.0,0015.83,0008.02,0006.78
2022-07-18 15:13:00,,0828.0,5.01,0.00,29.6,28.1,00.0,38.3,31.5,33.3,0000.0,0016.12,0008.01,0006.77
2022-07-18 15:14:00,,0828.0,4.99,0.00,29.6,28.2,00.0,38.4,31.5,33.0,0000.0,0017.07,0008.05,0006.77
2022-07-18 15:15:00,,0828.0,5.01,0.00,29.6,28.3,00.0,38.4,31.6,32.9,0000.0,0017.21,0008.01,0006.77
2022-07-18 15:16:00,,0828.0,5.01,0.00,29.7,28.5,00.0,38.4,31.6,32.5,0000.0,0017.31,0008.06,0006.77
2022-07-18 15:17:00,,0828.0,4.99,0.00,29.7,28.6,00.0,38.4,31.7,32.1,0000.0,0017.36,0008.09,0006.76
2022-07-18 15:18:00,,0828.0,4.99,0.00,29.7,28.6,00.0,38.4,31.7,32.4,0000.0,0017.93,0008.13,0006.78
2022-07-18 15:19:00,,0828.0,5.00,0.00,29.8,28.3,00.0,38.4,31.7,32.2,0000.0,0018.23,0008.16,0006.82
2022-07-18 15:20:00,,0828.0,5.00,0.00,29.7,27.7,00.0,38.3,31.6,32.4,0000.0,0016.99,0008.15,0006.84
2022-07-18 15:21:00,,0828.1,5.00,0.00,29.7,27.3,00.0,38.3,31.5,32.8,0000.0,0016.60,0008.16,0006.87
2022-07-18 15:22:00,,0827.9,5.00,0.00,29.6,27.3,00.0,38.3,31.4,32.7,0000.0,0016.27,0008.16,0006.88
2022-07-18 15:23:00,,0827.9,5.00,0.00,29.6,27.4,00.0,38.3,31.4,31.2,0000.0,0017.05,0008.15,0006.88
2022-07-18 15:24:00,,0828.0,5.00,0.00,29.6,27.6,00.0,38.3,31.4,30.8,0000.0,0017.57,0008.11,0006.88
2022-07-18 15:25:00,,0828.0,5.00,0.00,29.6,27.8,00.0,38.3,31.4,32.3,0000.0,0017.38,0008.02,0006.87
2022-07-18 15:26:00,,0827.9,5.00,0.00,29.6,27.9,00.0,38.3,31.4,31.5,0000.0,0017.81,0008.03,0006.88
2022-07-18 15:27:00,,0827.9,4.99,0.00,29.6,28.1,00.0,38.3,31.5,31.2,0000.0,0018.72,0008.03,0006.87
2022-07-18 15:28:00,,0827.9,5.01,0.00,29.6,28.2,00.0,38.3,31.5,30.5,0000.0,0019.74,0008.02,0006.86
2022-07-18 15:29:00,,0827.9,4.99,0.00,29.6,28.4,00.0,38.4,31.6,30.8,0000.0,0020.54,0008.04,0006.86
2022-07-18 15:30:00,,0827.9,5.01,0.00,29.7,28.5,00.0,38.4,31.6,30.4,0000.0,0020.06,0008.05,0006.83
2022-07-18 15:31:00,,0828.0,4.99,0.00,29.7,28.6,00.0,38.4,31.7,30.3,0000.0,0019.82,0007.98,0006.81
2022-07-18 15:32:00,,0828.0,5.00,0.00,29.7,28.5,00.0,38.4,31.7,30.8,0000.0,0019.84,0007.95,0006.78
2022-07-18 15:33:00,,0827.9,5.00,0.00,29.7,27.9,00.0,38.3,31.7,31.2,0000.0,0020.84,0007.98,0006.77
2022-07-18 15:34:00,,0827.8,5.00,0.00,29.7,27.5,00.0,38.3,31.6,31.3,0000.0,0021.48,0007.96,0006.75
2022-07-18 15:35:00,,0827.9,5.00,0.00,29.7,27.4,00.0,38.3,31.5,30.8,0000.0,0020.49,0007.95,0006.72
2022-07-18 15:36:00,,0827.9,5.00,0.00,29.6,27.5,00.0,38.3,31.4,31.3,0000.0,0019.76,0007.97,0006.71
2022-07-18 15:37:00,,0827.9,5.00,0.00,29.6,27.6,00.0,38.3,31.4,30.9,0000.0,0019.65,0007.98,0006.68
2022-07-18 15:38:00,,0827.9,5.00,0.00,29.6,27.8,00.0,38.3,31.4,31.1,0000.0,0020.21,0007.99,0006.67
2022-07-18 15:39:00,,0827.8,5.01,0.00,29.6,28.0,00.0,38.3,31.4,31.3,0000.0,0020.10,0008.00,0006.66
2022-07-18 15:40:00,,0827.8,5.01,0.00,29.6,28.1,00.0,38.3,31.5,31.8,0000.0,0018.84,0007.99,0006.66
2022-07-18 15:41:00,,0827.8,5.00,0.00,29.6,28.3,00.0,38.3,31.5,31.2,0000.0,0019.43,0007.98,0006.66
2022-07-18 15:42:00,,0827.9,5.00,0.00,29.6,28.4,00.0,38.3,31.6,31.2,0000.0,0020.04,0008.06,0006.65
2022-07-18 15:43:00,,0827.7,4.99,0.00,29.7,28.5,00.0,38.4,31.6,31.4,0000.0,0020.12,0008.10,0006.65
2022-07-18 15:44:00,,0827.8,5.00,0.00,29.7,28.6,00.0,38.4,31.7,31.6,0000.0,0020.23,0008.08,0006.65
2022-07-18 15:45:00,,0827.8,4.99,0.00,29.7,28.5,00.0,38.4,31.7,31.7,0000.0,0018.99,0008.10,0006.66
2022-07-18 15:46:00,,0827.7,5.00,0.00,29.7,27.9,00.0,38.3,31.7,31.3,0000.0,0019.30,0008.08,0006.68
2022-07-18 15:47:00,,0827.7,5.01,0.00,29.7,27.5,00.0,38.3,31.6,30.9,0000.0,0019.59,0008.09,0006.69
2022-07-18 15:48:00,,0827.7,5.00,0.00,29.7,27.5,00.0,38.3,31.4,31.1,0000.0,0019.43,0008.05,0006.70
2022-07-18 15:49:00,,0827.7,4.99,0.00,29.6,27.6,00.0,38.3,31.4,31.2,0000.0,0017.83,0007.98,0006.70
2022-07-18 15:50:00,,0827.7,5.00,0.00,29.6,27.7,00.0,38.3,31.4,30.9,0000.0,0016.64,0007.94,0006.69
2022-07-18 15:51:00,,0827.7,5.00,0.00,29.6,27.9,00.0,38.3,31.4,30.9,0000.0,0016.80,0007.92,0006.69
2022-07-18 15:52:00,,0827.7,5.00,0.00,29.6,28.0,00.0,38.3,31.5,31.1,0000.0,0016.23,0007.87,0006.69
2022-07-18 15:53:00,,0827.7,4.99,0.00,29.6,28.2,00.0,38.3,31.5,31.6,0000.0,0015.90,0007.81,0006.70
2022-07-18 15:54:00,,0827.7,5.00,0.00,29.6,28.3,00.0,38.4,31.6,30.6,0000.0,0016.01,0007.74,0006.69
2022-07-18 15:55:00,,0827.7,5.01,0.00,29.7,28.5,00.0,38.4,31.6,29.9,0000.0,0015.90,0007.72,0006.67
2022-07-18 15:56:00,,0827.7,5.00,0.00,29.7,28.6,00.0,38.4,31.7,30.3,0000.0,0016.43,0007.70,0006.66
2022-07-18 15:57:00,,0827.7,5.01,0.00,29.7,28.2,00.0,38.4,31.7,29.9,0000.0,0016.64,0007.71,0006.64
2022-07-18 15:58:00,,0827.7,4.99,0.00,29.7,27.6,00.0,38.3,31.6,29.6,0000.0,0016.64,0007.65,0006.61
2022-07-18 15:59:00,,0827.7,5.00,0.00,29.7,27.4,00.0,38.3,31.5,30.2,0000.0,0018.16,0007.65,0006.58
